{"data":{"norad_id":63823,"intl_designator":"2025-092V","name":"STARLINK-34043","alt_names":[],"object_type":"PAYLOAD","status":"ACTIVE","operator":null,"country":"US","launch_date":"2025-05-04","launch_site_code":"AFETR","launch_vehicle":null,"mission":null,"orbit_class":"UNKNOWN","rcs_meters":null,"size_class":null,"mass_kg":null,"dimensions":null,"purposes":["comms"],"wikipedia_slug":null,"has_3d_model":false,"image_url":null,"decayed_at":null,"tle_current":{"epoch":"2026-09-20T22:48:30.441312Z","epoch_age_seconds":111007,"freshness":"FRESH","line1":"1 63823U 25092V   26263.95035233  .00011528  00000+0  42789-3 0  9998","line2":"2 63823  43.0000 145.7676 0001459 267.2810  92.7875 15.27572427 78524","mean_motion":15.27572427,"eccentricity":0.0001459,"inclination_deg":43,"raan_deg":145.7676,"arg_perigee_deg":267.281,"mean_anomaly_deg":92.7875,"bstar":0.00042789,"rev_number":7852,"period_min":94.267216044742,"perigee_km":482.07072205981,"apogee_km":484.0728227796,"semimajor_km":6861.2087724197,"source":"CELESTRAK","updated_at":"2026-09-21T09:00:35.107912Z"}}}